Theta_e
338 337 336 333 332 332 329 323 320 314 317 322 323 327 328 328 329 328 331 334 331 326 324 324 324 325 327 328 329 332 333 336 338 339 340 340 341 342
338 337 332 332 332 334 331 328 327 321 317 322 324 325 326 329 332 334 333 332 329 327 326 325 323 323 324 324 325 326 329 331 332 333 335 335 335 336
330 326 325 325 324 327 333 331 327 324 320 321 324 325 328 329 331 332 334 334 334 327 326 325 322 320 321 321 322 323 325 327 329 329 331 330 330 331
322 319 323 327 323 320 323 330 328 325 322 318 319 323 325 327 328 329 332 337 336 333 326 324 321 319 319 318 318 318 320 322 324 326 326 326 326 328
321 321 323 321 325 328 328 328 327 327 324 320 318 319 323 324 323 328 328 329 332 333 326 323 322 320 319 318 317 317 316 317 317 318 319 322 323 323
324 324 325 323 328 329 331 328 326 323 321 319 315 314 317 319 321 323 322 324 326 332 331 327 324 324 320 319 317 318 316 313 313 314 312 312 311 313
320 321 322 321 327 328 331 326 321 318 316 314 312 312 314 314 317 318 317 320 322 325 326 326 328 329 326 320 322 321 318 317 313 311 309 307 305 306
322 326 329 324 321 317 315 313 314 310 307 305 304 303 305 309 311 312 314 314 314 322 323 322 326 328 331 328 319 315 311 312 311 310 309 307 307 305
317 315 317 317 312 308 307 308 307 308 309 308 306 308 309 312 313 311 311 313 315 320 322 321 325 322 327 333 315 313 310 312 311 308 306 307 306 304
317 315 313 309 309 307 306 307 308 308 307 309 309 310 312 314 315 316 314 314 315 318 323 320 322 321 325 326 315 312 310 310 308 306 308 307 305 303
317 316 316 312 305 306 309 308 309 311 312 307 305 304 305 302 302 304 304 305 307 310 319 319 320 320 325 322 321 313 310 307 307 305 304 304 304 303
316 316 311 313 303 304 312 310 308 309 312 312 311 308 306 308 305 306 307 307 309 310 317 317 316 316 318 324 320 315 313 307 308 305 304 304 302 313
314 316 315 304 300 300 306 311 309 311 310 310 308 307 307 308 309 311 310 312 311 314 319 322 317 319 318 318 322 319 318 310 313 308 302 301 299 305
312 316 315 300 299 299 305 305 302 306 309 306 305 305 305 306 308 312 318 318 320 320 321 324 323 320 318 320 320 322 317 317 316 313 307 302 301 298
311 311 307 299 298 300 300 300 300 308 306 304 304 305 305 308 312 316 317 319 321 327 329 329 327 325 325 321 320 321 320 317 312 308 306 305 305 305
305 309 308 304 303 305 301 301 306 307 306 305 306 308 307 309 311 315 315 321 323 324 318 323 326 325 322 322 321 317 315 310 308 306 304 303 302 298
307 311 308 307 307 307 307 304 305 308 307 307 307 307 307 309 313 314 316 323 321 319 314 310 309 308 306 319 319 315 310 307 306 303 301 298 295 292
306 307 308 308 308 309 309 308 307 307 308 308 308 309 309 312 313 314 317 321 319 318 314 313 312 315 315 310 307 313 310 307 306 302 300 292 288 290
308 308 310 310 310 310 310 309 308 309 310 309 308 309 313 314 313 313 317 319 318 319 319 317 316 317 313 308 302 299 311 310 307 302 301 295 288 290
310 310 309 309 309 309 308 308 308 308 307 307 307 313 314 313 312 314 317 318 317 317 318 318 319 317 313 309 301 301 295 309 302 294 291 291 290 292
306 305 306 306 307 308 308 307 307 306 307 308 311 315 315 314 313 316 318 302 307 318 315 317 318 298 305 308 303 298 298 296 300 296 291 290 290 288
304 309 309 306 306 305 305 304 304 305 305 306 313 315 315 316 315 316 318 317 315 317 314 309 311 314 312 307 299 293 292 295 294 294 294 297 300 291
305 306 308 305 304 304 303 303 304 305 306 310 315 316 316 316 317 318 318 318 318 317 311 312 310 307 305 302 295 293 289 289 290 290 289 293 295 295
Wind_Speed
22 14 12 6 6 6 5 5 7 5 6 4 4 5 5 4 6 5 5 8 10 9 10 12 12 13 13 13 14 16 15 14 15 16 14 14 12 13
13 15 4 2 7 9 4 5 5 6 4 5 5 5 5 4 4 4 5 9 10 11 12 13 12 14 14 15 14 15 15 15 15 15 14 13 11 9
3 5 5 1 1 8 12 5 4 4 5 3 2 2 3 5 3 4 5 6 6 13 12 13 13 13 13 14 15 15 14 13 15 13 13 12 10 9
10 13 7 2 5 8 16 16 5 5 5 5 1 3 1 3 4 5 5 6 7 9 11 12 12 12 14 14 13 12 11 14 14 11 11 9 8 8
11 12 14 11 17 15 21 11 4 4 4 4 3 3 3 2 6 6 6 6 4 8 10 13 13 12 13 13 12 12 14 14 11 10 8 8 6 5
11 13 16 18 19 17 13 7 4 4 4 4 4 4 2 3 4 5 5 3 4 3 7 8 9 9 8 7 8 10 10 8 9 9 7 6 6 6
13 18 23 22 23 16 8 6 6 4 4 4 2 2 2 2 3 2 2 3 3 4 4 3 2 3 3 6 5 8 7 7 9 8 7 6 5 5
24 24 17 21 15 17 14 12 10 7 5 5 3 3 2 2 1 0 1 3 3 2 2 4 2 3 3 4 6 7 9 10 9 9 7 6 6 5
15 15 11 9 13 12 12 12 9 11 9 7 5 4 3 4 3 0 3 4 4 4 2 8 2 3 3 3 9 10 8 10 10 9 7 5 4 5
6 10 11 9 11 12 9 8 6 5 6 4 5 7 5 4 3 3 3 4 4 4 4 7 3 4 2 1 5 11 14 11 10 9 8 7 5 4
8 8 10 10 13 16 10 7 5 3 6 12 10 6 5 6 6 1 4 2 4 3 4 4 4 2 1 1 3 6 10 10 9 7 4 3 3 1
1 7 13 11 16 15 11 8 7 6 3 3 3 1 3 6 9 7 4 5 3 3 3 3 2 2 3 2 2 4 5 7 9 6 5 5 4 1
3 3 5 13 12 11 10 7 7 6 6 4 1 3 4 5 5 5 6 6 4 5 5 2 0 2 2 0 2 2 3 3 3 5 11 10 10 5
5 4 4 11 14 14 10 11 11 8 4 1 0 3 4 4 5 5 4 6 6 9 6 6 3 4 4 3 3 4 4 4 6 6 7 11 18 20
4 4 7 10 12 10 10 11 10 5 4 2 4 5 4 5 4 4 3 6 7 7 7 8 6 5 4 4 5 5 6 5 6 7 7 7 5 4
9 7 6 7 10 4 6 5 4 4 5 4 5 5 3 2 2 3 3 3 3 2 8 3 5 4 2 4 9 6 7 4 4 8 8 9 8 8
6 4 4 3 3 4 3 4 4 4 4 4 4 5 5 3 3 2 3 1 2 1 3 6 10 11 8 4 9 8 8 7 7 9 10 10 8 6
1 3 4 4 5 4 4 4 4 6 6 5 5 6 4 4 3 1 2 1 1 4 4 2 4 5 5 10 16 9 8 8 7 8 8 9 6 4
7 7 5 5 4 5 5 5 5 6 7 5 5 5 4 3 2 2 1 0 2 3 4 4 4 4 9 4 1 17 9 8 9 7 4 5 6 4
8 10 9 6 7 7 5 5 4 4 3 4 3 4 4 3 3 3 3 3 3 1 2 5 4 4 9 7 5 3 13 10 6 7 7 6 5 10
5 5 5 5 5 4 4 4 3 2 3 3 3 4 5 4 4 4 4 4 3 2 3 7 6 9 10 8 6 3 4 12 9 7 9 7 4 2
4 5 6 5 5 5 3 2 2 3 4 4 5 5 4 4 4 4 4 3 3 3 3 5 8 9 5 7 9 6 5 6 10 14 10 2 6 6
4 4 6 5 5 5 4 3 3 5 5 5 5 4 4 4 4 4 4 3 3 4 9 7 8 8 8 10 12 8 13 10 6 6 6 14 16 16
Wind_Direction
250 218 224 230 227 190 179 151 166 196 230 243 183 227 224 202 223 233 249 267 273 255 259 257 235 235 245 249 246 243 240 231 224 217 207 218 215 222
239 236 177 2 330 313 259 193 181 181 202 195 224 196 219 265 248 227 257 254 258 263 261 258 258 252 250 247 244 240 239 238 227 216 200 211 208 214
219 58 358 235 312 312 281 280 225 157 180 265 205 187 188 204 229 251 244 248 254 244 241 248 252 253 248 241 240 241 238 237 238 214 198 196 204 214
180 157 211 245 233 251 274 251 207 163 140 202 267 288 296 3 273 264 269 250 236 238 237 249 255 256 253 246 241 237 228 236 230 204 199 203 198 202
205 191 172 195 237 203 234 227 218 155 147 133 175 216 187 163 303 265 255 259 252 249 253 263 269 274 265 250 238 224 218 224 214 191 171 191 199 220
212 193 194 202 217 221 217 208 205 147 148 153 190 218 186 232 216 270 290 271 275 279 261 256 275 280 269 281 264 244 232 199 196 183 160 174 190 219
201 223 211 209 214 205 183 192 179 149 145 153 163 137 163 135 155 211 255 286 295 247 267 278 255 260 240 238 277 259 205 187 178 160 164 168 197 223
189 204 193 189 160 154 147 157 154 148 151 153 156 153 201 180 210 169 336 326 307 312 358 304 223 280 241 217 193 201 176 166 155 160 161 183 210 222
147 135 125 143 139 137 146 137 139 143 143 153 149 172 178 204 173 241 224 240 243 274 335 286 225 255 270 209 181 181 170 162 155 158 162 183 205 216
139 143 130 152 155 144 139 141 153 159 166 159 166 201 201 223 193 206 218 246 272 270 239 272 241 236 200 90 180 194 167 157 142 160 160 175 189 200
159 145 141 158 162 139 134 154 162 217 200 189 196 182 195 238 220 136 271 246 279 238 232 228 244 237 209 152 82 138 132 140 142 128 128 177 185 204
216 143 141 154 166 150 149 162 157 196 135 89 81 98 234 273 267 197 211 220 221 312 286 170 165 51 357 66 109 113 112 113 113 117 98 71 63 30
174 174 167 151 156 154 155 160 176 158 149 141 110 320 303 285 271 250 206 205 204 222 228 1 203 131 145 258 115 123 128 123 117 93 77 71 57 38
205 174 164 156 160 178 179 173 153 130 138 115 329 275 265 262 270 269 208 209 218 227 211 190 226 189 153 223 155 134 127 130 111 101 100 97 76 62
167 135 140 174 181 189 191 170 144 145 150 165 236 252 228 231 253 260 284 262 242 235 239 211 212 238 202 157 141 140 142 79 97 100 76 60 51 27
132 124 102 144 187 173 107 144 154 167 181 205 224 251 262 252 241 209 248 276 273 326 43 12 172 157 205 134 141 122 127 123 100 92 93 72 61 56
134 85 87 104 126 148 142 152 170 182 209 229 239 257 260 250 231 212 247 303 270 64 73 54 70 78 61 118 121 108 113 107 110 112 96 87 63 60
97 152 147 156 161 167 153 163 177 197 224 223 228 241 227 211 239 306 273 343 234 141 123 123 138 127 105 65 34 119 114 117 113 112 110 103 86 60
208 204 202 174 178 188 173 176 197 210 220 226 237 234 197 188 172 255 261 95 175 139 137 192 202 160 123 101 99 30 125 127 130 105 91 93 125 129
187 195 198 176 181 187 178 185 213 225 225 239 243 193 183 171 203 236 217 206 197 155 149 189 218 155 139 145 127 51 15 130 120 106 109 85 77 97
212 173 164 157 163 158 157 168 188 241 249 270 255 184 179 182 208 210 212 195 161 160 235 272 191 119 111 113 90 65 32 47 65 131 135 116 115 121
248 195 155 135 131 131 132 175 237 276 278 253 221 201 190 189 211 213 202 157 177 186 142 144 140 124 108 120 117 113 105 89 79 85 53 55 163 157
259 188 148 144 150 169 181 197 234 258 257 249 195 194 183 216 201 205 183 185 185 168 142 158 106 95 107 117 122 121 117 118 115 100 48 14 72 92